Location: Asheville, NC
(35.6000°N, 82.5500°W)
Time: 15:23:05
(UTC-04:00)

Vanguard 1 - Pass Details

Date: 17 March 2018
Orbit: 650 x 3833 km, 34.3° (Epoch: 24 June)

Event Time Altitude Azimuth Distance (km) Brightness Sun altitude
Rises 16:29:30 0° 288° (WNW) 7,732 15.1 35.8°
Reaches altitude 10° 16:36:03 10° 280° (W) 6,371 15.0 34.7°
Maximum altitude 16:51:03 31° 228° (SW) 3,689 15.3 32.1°
Drops below altitude 10° 17:00:43 10° 171° (S) 4,040 13.5 30.3°
Sets 17:03:49 0° 160° (SSE) 4,645 13.6 29.8°
